This is the latest recevied weather packets stored in our database for station/object YT1XN-8. If no packets are shown the sender has not sent any weather packets the latest 10 day(s).
| Time | Temp. | Humidity | Pressure | Rain* | Wind** | Luminosity | Snow |
|---|---|---|---|---|---|---|---|
| 1777735603 | 19.44° C | 49% | 1020.6 hPa | 0 mm | - | - | - |
| 1777735245 | 20° C | 48% | 1020.6 hPa | 0 mm | - | - | - |
| 1777734942 | 20° C | 49% | 1020.7 hPa | 0 mm | - | - | - |
| 1777734644 | 20° C | 48% | 1020.8 hPa | 0 mm | - | - | - |
| 1777734283 | 20° C | 48% | 1021 hPa | 0 mm | - | - | - |
| 1777734044 | 20° C | 47% | 1021 hPa | 0 mm | - | - | - |
| 1777733623 | 20° C | 48% | 1021 hPa | 0 mm | - | - | - |
| 1777733445 | 20° C | 49% | 1021.1 hPa | 0 mm | - | - | - |
| 1777732962 | 20° C | 48% | 1021.2 hPa | 0 mm | - | - | - |
| 1777732844 | 20° C | 48% | 1021.3 hPa | 0 mm | - | - | - |
| 1777732302 | 20° C | 48% | 1021.3 hPa | 0 mm | - | - | - |
| 1777732244 | 20° C | 48% | 1021.2 hPa | 0 mm | - | - | - |
| 1777731642 | 20.56° C | 48% | 1021.4 hPa | 0 mm | - | - | - |
| 1777731044 | 20.56° C | 47% | 1021.5 hPa | 0 mm | - | - | - |
| 1777730982 | 20.56° C | 46% | 1021.5 hPa | 0 mm | - | - | - |
| 1777730444 | 20.56° C | 49% | 1021.5 hPa | 0 mm | - | - | - |
| 1777730323 | 20° C | 48% | 1021.6 hPa | 0 mm | - | - | - |
| 1777729845 | 20° C | 50% | 1021.7 hPa | 0 mm | - | - | - |
| 1777729662 | 20° C | 49% | 1021.6 hPa | 0 mm | - | - | - |
| 1777729244 | 19.44° C | 47% | 1021.9 hPa | 0 mm | - | - | - |
| 1777729002 | 18.89° C | 52% | 1022 hPa | 0 mm | - | - | - |
| 1777728644 | 18.89° C | 50% | 1022 hPa | 0 mm | - | - | - |
| 1777728343 | 18.89° C | 49% | 1022 hPa | 0 mm | - | - | - |
| 1777728045 | 18.89° C | 50% | 1022.1 hPa | 0 mm | - | - | - |
| 1777727683 | 19.44° C | 48% | 1022.1 hPa | 0 mm | - | - | - |
* Rain latest hour (hover to see other rain measurements)
** Current wind speed in m/s (hover to see current wind gust speed)